Location: B�di�
(14.6834°N, 3.1047°W)
Time: 13:17:58
(UTC+00:00)

Cosmos 1844 Rocket - Pass Details

Date: 24 January 2020
Orbit: 824 x 845 km, 71.0° (Epoch: 22 February)

Event Time Altitude Azimuth Distance (km) Brightness Sun altitude
Rises 19:36:10 0° 168° (SSE) 3,348 5.9 -21.4°
Reaches altitude 10° 19:39:05 10° 153° (SSE) 2,415 5.0 -22.1°
Enters shadow 19:40:25 15° 142° (SE) 2,064 4.5 -22.4°
